Time,TemperatureF,DewpointF,PressureIn,WindDirection,WindDirectionDegrees,WindSpeedMPH,WindSpeedGustMPH,Humidity,HourlyPrecipIn,Conditions,Clouds,dailyrainin,SolarRadiationWatts/m^2,SoftwareType,DateUTC
2013-05-12 00:00:00,53.5,32.1,30.19,ENE,61,1.0,3.0,44,0.00,,---,0.00,0.00,VWS V14.01,2013-05-12 05:00:00,
2013-05-12 00:02:00,53.5,31.0,30.19,ENE,61,2.0,3.0,42,0.00,,---,0.00,0.00,VWS V14.01,2013-05-12 05:02:00,
2013-05-12 00:06:00,53.3,31.4,30.19,ENE,61,1.0,3.0,43,0.00,,---,0.00,0.00,VWS V14.01,2013-05-12 05:06:00,
2013-05-12 00:12:00,53.2,31.9,30.19,ENE,61,1.0,3.0,44,0.00,,---,0.00,0.00,VWS V14.01,2013-05-12 05:12:00,
2013-05-12 00:17:00,53.2,31.9,30.19,ENE,61,0.0,3.0,44,0.00,,---,0.00,0.00,VWS V14.01,2013-05-12 05:17:00,
2013-05-12 00:22:00,53.1,32.3,30.19,ENE,61,0.0,3.0,45,0.00,,---,0.00,0.00,VWS V14.01,2013-05-12 05:22:00,
2013-05-12 00:27:00,52.8,33.2,30.19,ENE,61,0.0,3.0,47,0.00,,---,0.00,0.00,VWS V14.01,2013-05-12 05:27:00,
2013-05-12 00:30:00,52.6,32.4,30.19,ENE,62,2.0,3.0,46,0.00,,---,0.00,0.00,VWS V14.01,2013-05-12 05:30:00,
2013-05-12 00:32:00,52.6,31.9,30.19,ENE,62,2.0,3.0,45,0.00,,---,0.00,0.00,VWS V14.01,2013-05-12 05:32:00,
2013-05-12 00:37:00,52.6,31.9,30.19,ENE,62,1.0,3.0,45,0.00,,---,0.00,0.00,VWS V14.01,2013-05-12 05:37:00,
2013-05-12 00:42:00,52.5,31.8,30.19,ENE,62,0.0,3.0,45,0.00,,---,0.00,0.00,VWS V14.01,2013-05-12 05:42:00,
2013-05-12 00:47:00,52.3,33.2,30.19,ENE,62,0.0,3.0,48,0.00,,---,0.00,0.00,VWS V14.01,2013-05-12 05:47:00,
2013-05-12 00:52:00,51.9,33.4,30.19,ENE,62,1.0,3.0,49,0.00,,---,0.00,0.00,VWS V14.01,2013-05-12 05:52:00,
2013-05-12 00:57:00,51.4,33.9,30.19,ENE,62,2.0,3.0,51,0.00,,---,0.00,0.00,VWS V14.01,2013-05-12 05:57:00,
2013-05-12 01:00:00,51.1,34.1,30.19,ENE,62,1.0,3.0,52,0.00,,---,0.00,0.00,VWS V14.01,2013-05-12 06:00:00,
2013-05-12 01:02:00,51.0,34.5,30.19,ENE,62,2.0,2.0,53,0.00,,---,0.00,0.00,VWS V14.01,2013-05-12 06:02:00,
2013-05-12 01:07:00,50.4,34.4,30.18,ENE,62,0.0,2.0,54,0.00,,---,0.00,0.00,VWS V14.01,2013-05-12 06:07:00,
2013-05-12 01:12:00,50.1,34.6,30.18,ENE,62,0.0,2.0,55,0.00,,---,0.00,0.00,VWS V14.01,2013-05-12 06:12:00,
2013-05-12 01:17:00,49.8,35.2,30.18,ENE,62,2.0,2.0,57,0.00,,---,0.00,0.00,VWS V14.01,2013-05-12 06:17:00,
2013-05-12 01:22:00,49.5,34.9,30.18,ENE,62,2.0,3.0,57,0.00,,---,0.00,0.00,VWS V14.01,2013-05-12 06:22:00,
2013-05-12 01:27:00,49.4,34.4,30.18,ENE,62,2.0,3.0,56,0.00,,---,0.00,0.00,VWS V14.01,2013-05-12 06:27:00,
2013-05-12 01:30:00,49.2,34.2,30.17,ENE,62,2.0,3.0,56,0.00,,---,0.00,0.00,VWS V14.01,2013-05-12 06:30:00,
2013-05-12 01:32:00,49.2,34.2,30.17,ENE,62,1.0,2.0,56,0.00,,---,0.00,0.00,VWS V14.01,2013-05-12 06:32:00,
2013-05-12 01:37:00,49.1,34.1,30.17,ENE,62,2.0,3.0,56,0.00,,---,0.00,0.00,VWS V14.01,2013-05-12 06:37:00,
2013-05-12 01:42:00,48.8,35.1,30.17,ENE,62,2.0,3.0,59,0.00,,---,0.00,0.00,VWS V14.01,2013-05-12 06:42:00,
2013-05-12 01:47:00,48.3,35.9,30.17,ENE,62,3.0,3.0,62,0.00,,---,0.00,0.00,VWS V14.01,2013-05-12 06:47:00,
2013-05-12 01:52:00,47.9,36.3,30.17,ENE,62,2.0,3.0,64,0.00,,---,0.00,0.00,VWS V14.01,2013-05-12 06:52:00,
2013-05-12 01:57:00,47.4,36.6,30.17,ENE,77,4.0,4.0,66,0.00,,---,0.00,0.00,VWS V14.01,2013-05-12 06:57:00,
2013-05-12 02:00:00,47.3,37.3,30.17,East,90,4.0,5.0,68,0.00,,---,0.00,0.00,VWS V14.01,2013-05-12 07:00:00,
2013-05-12 02:02:00,47.1,37.5,30.17,East,90,4.0,5.0,69,0.00,,---,0.00,0.00,VWS V14.01,2013-05-12 07:02:00,
2013-05-12 02:07:00,47.0,37.7,30.16,East,91,5.0,5.0,70,0.00,,---,0.00,0.00,VWS V14.01,2013-05-12 07:07:00,
2013-05-12 02:12:00,46.8,36.8,30.16,East,92,5.0,6.0,68,0.00,,---,0.00,0.00,VWS V14.01,2013-05-12 07:12:00,
2013-05-12 02:17:00,47.0,37.0,30.17,East,92,0.0,6.0,68,0.00,,---,0.00,0.00,VWS V14.01,2013-05-12 07:17:00,
2013-05-12 02:22:00,47.0,37.4,30.17,East,92,0.0,6.0,69,0.00,,---,0.00,0.00,VWS V14.01,2013-05-12 07:22:00,
2013-05-12 02:27:00,46.8,37.2,30.17,East,92,0.0,6.0,69,0.00,,---,0.00,0.00,VWS V14.01,2013-05-12 07:27:00,
2013-05-12 02:30:00,46.8,37.2,30.17,East,92,0.0,6.0,69,0.00,,---,0.00,0.00,VWS V14.01,2013-05-12 07:30:00,
2013-05-12 02:32:00,46.8,36.8,30.16,East,92,0.0,1.0,68,0.00,,---,0.00,0.00,VWS V14.01,2013-05-12 07:32:00,
2013-05-12 02:37:00,46.8,36.4,30.17,East,92,0.0,2.0,67,0.00,,---,0.00,0.00,VWS V14.01,2013-05-12 07:37:00,
2013-05-12 02:42:00,46.8,36.8,30.17,East,92,0.0,2.0,68,0.00,,---,0.00,0.00,VWS V14.01,2013-05-12 07:42:00,
2013-05-12 02:47:00,46.8,36.4,30.17,East,92,0.0,2.0,67,0.00,,---,0.00,0.00,VWS V14.01,2013-05-12 07:47:00,
2013-05-12 02:52:00,46.8,36.4,30.17,East,92,0.0,2.0,67,0.00,,---,0.00,0.00,VWS V14.01,2013-05-12 07:52:00,
2013-05-12 02:57:00,47.0,36.2,30.16,East,92,2.0,2.0,66,0.00,,---,0.00,0.00,VWS V14.01,2013-05-12 07:57:00,
2013-05-12 03:00:00,47.0,36.6,30.17,East,92,0.0,2.0,67,0.00,,---,0.00,0.00,VWS V14.01,2013-05-12 08:00:00,
2013-05-12 03:02:00,47.0,36.6,30.16,East,92,0.0,0.0,67,0.00,,---,0.00,0.00,VWS V14.01,2013-05-12 08:02:00,
2013-05-12 03:07:00,46.8,36.4,30.16,East,92,0.0,0.0,67,0.00,,---,0.00,0.00,VWS V14.01,2013-05-12 08:07:00,
2013-05-12 03:12:00,46.7,35.6,30.17,East,92,0.0,0.0,65,0.00,,---,0.00,0.00,VWS V14.01,2013-05-12 08:12:00,
2013-05-12 03:17:00,46.7,36.0,30.17,East,92,0.0,0.0,66,0.00,,---,0.00,0.00,VWS V14.01,2013-05-12 08:17:00,
2013-05-12 03:22:00,46.7,37.1,30.17,East,92,0.0,0.0,69,0.00,,---,0.00,0.00,VWS V14.01,2013-05-12 08:22:00,
2013-05-12 03:27:00,46.4,35.3,30.17,East,92,0.0,0.0,65,0.00,,---,0.00,0.00,VWS V14.01,2013-05-12 08:27:00,
2013-05-12 03:30:00,46.4,36.0,30.17,East,92,0.0,0.0,67,0.00,,---,0.00,0.00,VWS V14.01,2013-05-12 08:30:00,
2013-05-12 03:32:00,46.4,36.4,30.17,East,92,0.0,0.0,68,0.00,,---,0.00,0.00,VWS V14.01,2013-05-12 08:32:00,
2013-05-12 03:37:00,46.2,35.1,30.17,East,92,0.0,0.0,65,0.00,,---,0.00,0.00,VWS V14.01,2013-05-12 08:37:00,
2013-05-12 03:42:00,46.2,34.7,30.18,East,92,0.0,0.0,64,0.00,,---,0.00,0.00,VWS V14.01,2013-05-12 08:42:00,
2013-05-12 03:47:00,46.4,35.3,30.17,East,92,2.0,2.0,65,0.00,,---,0.00,0.00,VWS V14.01,2013-05-12 08:47:00,
2013-05-12 03:52:00,46.7,34.0,30.18,East,92,4.0,4.0,61,0.00,,---,0.00,0.00,VWS V14.01,2013-05-12 08:52:00,
2013-05-12 03:57:00,47.0,34.7,30.18,East,92,2.0,5.0,62,0.00,,---,0.00,0.00,VWS V14.01,2013-05-12 08:57:00,
2013-05-12 04:00:00,47.0,33.8,30.18,East,92,1.0,5.0,60,0.00,,---,0.00,0.00,VWS V14.01,2013-05-12 09:00:00,
2013-05-12 04:02:00,47.0,33.4,30.18,East,92,0.0,0.0,59,0.00,,---,0.00,0.00,VWS V14.01,2013-05-12 09:02:00,
2013-05-12 04:07:00,47.0,35.1,30.18,East,92,0.0,0.0,63,0.00,,---,0.00,0.00,VWS V14.01,2013-05-12 09:07:00,
2013-05-12 04:12:00,46.7,34.8,30.18,East,92,0.0,0.0,63,0.00,,---,0.00,0.00,VWS V14.01,2013-05-12 09:12:00,
2013-05-12 04:17:00,46.4,35.7,30.18,East,92,0.0,0.0,66,0.00,,---,0.00,0.00,VWS V14.01,2013-05-12 09:17:00,
2013-05-12 04:22:00,46.0,34.9,30.17,East,94,1.0,5.0,65,0.00,,---,0.00,0.00,VWS V14.01,2013-05-12 09:22:00,
2013-05-12 04:27:00,45.8,35.8,30.18,East,94,1.0,5.0,68,0.00,,---,0.00,0.00,VWS V14.01,2013-05-12 09:27:00,
2013-05-12 04:30:00,45.7,35.4,30.18,East,94,2.0,5.0,67,0.00,,---,0.00,0.00,VWS V14.01,2013-05-12 09:30:00,
2013-05-12 04:32:00,45.5,34.4,30.18,East,94,2.0,4.0,65,0.00,,---,0.00,0.00,VWS V14.01,2013-05-12 09:32:00,
2013-05-12 04:37:00,45.4,34.3,30.18,East,94,1.0,4.0,65,0.00,,---,0.00,0.00,VWS V14.01,2013-05-12 09:37:00,
2013-05-12 04:42:00,45.2,34.9,30.18,East,94,2.0,4.0,67,0.00,,---,0.00,0.00,VWS V14.01,2013-05-12 09:42:00,
2013-05-12 04:47:00,45.1,33.3,30.18,East,94,0.0,4.0,63,0.00,,---,0.00,0.00,VWS V14.01,2013-05-12 09:47:00,
2013-05-12 04:52:00,45.2,34.2,30.18,East,94,0.0,4.0,65,0.00,,---,0.00,0.00,VWS V14.01,2013-05-12 09:52:00,
2013-05-12 04:57:00,45.2,33.4,30.18,East,94,2.0,4.0,63,0.00,,---,0.00,0.00,VWS V14.01,2013-05-12 09:57:00,
2013-05-12 05:00:00,45.4,31.9,30.18,East,94,0.0,4.0,59,0.00,,---,0.00,0.00,VWS V14.01,2013-05-12 10:00:00,
2013-05-12 05:02:00,45.5,32.8,30.18,East,94,2.0,2.0,61,0.00,,---,0.00,0.00,VWS V14.01,2013-05-12 10:02:00,
2013-05-12 05:07:00,45.5,31.6,30.18,East,92,4.0,5.0,58,0.00,,---,0.00,0.00,VWS V14.01,2013-05-12 10:07:00,
2013-05-12 05:12:00,45.8,31.0,30.18,East,92,2.0,5.0,56,0.00,,---,0.00,0.00,VWS V14.01,2013-05-12 10:12:00,
2013-05-12 05:17:00,45.8,32.7,30.17,East,92,2.0,5.0,60,0.00,,---,0.00,0.00,VWS V14.01,2013-05-12 10:17:00,
2013-05-12 05:22:00,45.8,32.3,30.17,East,92,2.0,5.0,59,0.00,,---,0.00,0.00,VWS V14.01,2013-05-12 10:22:00,
2013-05-12 05:27:00,45.5,32.8,30.18,East,92,2.0,5.0,61,0.00,,---,0.00,0.00,VWS V14.01,2013-05-12 10:27:00,
2013-05-12 05:30:00,45.5,33.2,30.18,East,92,4.0,5.0,62,0.00,,---,0.00,0.00,VWS V14.01,2013-05-12 10:30:00,
2013-05-12 05:32:00,45.4,33.2,30.17,East,92,5.0,5.0,62,0.00,,---,0.00,0.00,VWS V14.01,2013-05-12 10:32:00,
2013-05-12 05:37:00,45.2,33.8,30.18,East,90,5.0,6.0,64,0.00,,---,0.00,0.00,VWS V14.01,2013-05-12 10:37:00,
2013-05-12 05:42:00,45.1,33.3,30.17,East,90,1.0,6.0,63,0.00,,---,0.00,0.00,VWS V14.01,2013-05-12 10:42:00,
2013-05-12 05:47:00,44.9,33.5,30.17,East,90,2.0,6.0,64,0.00,,---,0.00,0.00,VWS V14.01,2013-05-12 10:47:00,
2013-05-12 05:52:00,44.8,33.4,30.17,East,90,2.0,6.0,64,0.00,,---,0.00,0.00,VWS V14.01,2013-05-12 10:52:00,
2013-05-12 05:57:00,44.6,33.6,30.17,East,90,4.0,6.0,65,0.00,,---,0.00,0.00,VWS V14.01,2013-05-12 10:57:00,
2013-05-12 06:00:00,44.6,33.6,30.17,East,90,2.0,6.0,65,0.00,,---,0.00,0.00,VWS V14.01,2013-05-12 11:00:00,
2013-05-12 06:02:00,44.5,33.5,30.18,East,90,1.0,4.0,65,0.00,,---,0.00,0.00,VWS V14.01,2013-05-12 11:02:00,
2013-05-12 06:07:00,44.3,33.7,30.18,East,90,2.0,4.0,66,0.00,,---,0.00,0.00,VWS V14.01,2013-05-12 11:07:00,
2013-05-12 06:12:00,44.2,33.6,30.18,East,90,0.0,4.0,66,0.00,,---,0.00,0.00,VWS V14.01,2013-05-12 11:12:00,
2013-05-12 06:17:00,44.1,33.9,30.18,East,90,0.0,4.0,67,0.00,,---,0.00,0.00,VWS V14.01,2013-05-12 11:17:00,
2013-05-12 06:22:00,44.1,33.9,30.18,East,90,0.0,4.0,67,0.00,,---,0.00,5.00,VWS V14.01,2013-05-12 11:22:00,
2013-05-12 06:27:00,44.1,34.2,30.19,East,90,0.0,4.0,68,0.00,,---,0.00,7.00,VWS V14.01,2013-05-12 11:27:00,
2013-05-12 06:30:00,43.9,34.0,30.18,East,90,2.0,4.0,68,0.00,,---,0.00,9.00,VWS V14.01,2013-05-12 11:30:00,
2013-05-12 06:32:00,43.9,34.4,30.18,East,90,1.0,2.0,69,0.00,,---,0.00,12.00,VWS V14.01,2013-05-12 11:32:00,
2013-05-12 06:37:00,43.8,34.3,30.19,East,90,0.0,2.0,69,0.00,,---,0.00,16.00,VWS V14.01,2013-05-12 11:37:00,
2013-05-12 06:42:00,43.8,34.3,30.19,East,90,0.0,2.0,69,0.00,,---,0.00,26.00,VWS V14.01,2013-05-12 11:42:00,
2013-05-12 06:47:00,43.9,34.4,30.19,East,90,2.0,4.0,69,0.00,,---,0.00,33.00,VWS V14.01,2013-05-12 11:47:00,
2013-05-12 06:52:00,43.9,34.0,30.19,East,90,0.0,4.0,68,0.00,,---,0.00,42.00,VWS V14.01,2013-05-12 11:52:00,
2013-05-12 06:57:00,44.2,34.0,30.19,East,90,1.0,4.0,67,0.00,,---,0.00,49.00,VWS V14.01,2013-05-12 11:57:00,
2013-05-12 07:00:00,44.3,33.7,30.19,East,90,2.0,4.0,66,0.00,,---,0.00,53.00,VWS V14.01,2013-05-12 12:00:00,
2013-05-12 07:02:00,44.6,34.0,30.19,East,90,4.0,4.0,66,0.00,,---,0.00,65.00,VWS V14.01,2013-05-12 12:02:00,
2013-05-12 07:07:00,44.9,33.9,30.19,ESE,113,2.0,4.0,65,0.00,,---,0.00,84.00,VWS V14.01,2013-05-12 12:07:00,
2013-05-12 07:12:00,45.4,33.6,30.19,ESE,113,2.0,5.0,63,0.00,,---,0.00,102.00,VWS V14.01,2013-05-12 12:12:00,
2013-05-12 07:17:00,46.0,34.1,30.20,ESE,113,0.0,5.0,63,0.00,,---,0.00,128.00,VWS V14.01,2013-05-12 12:17:00,
2013-05-12 07:22:00,46.5,33.0,30.20,ESE,113,1.0,5.0,59,0.00,,---,0.00,163.00,VWS V14.01,2013-05-12 12:22:00,
2013-05-12 07:27:00,47.1,33.1,30.20,ESE,113,1.0,5.0,58,0.00,,---,0.00,135.00,VWS V14.01,2013-05-12 12:27:00,
2013-05-12 07:30:00,47.4,32.5,30.21,ESE,113,0.0,5.0,56,0.00,,---,0.00,134.00,VWS V14.01,2013-05-12 12:30:00,
2013-05-12 07:32:00,47.7,32.3,30.21,ESE,113,1.0,1.0,55,0.00,,---,0.00,69.00,VWS V14.01,2013-05-12 12:32:00,
2013-05-12 07:37:00,47.7,32.3,30.20,ESE,117,4.0,5.0,55,0.00,,---,0.00,51.00,VWS V14.01,2013-05-12 12:37:00,
2013-05-12 07:42:00,47.6,32.7,30.21,ESE,117,1.0,5.0,56,0.00,,---,0.00,67.00,VWS V14.01,2013-05-12 12:42:00,
2013-05-12 07:47:00,47.4,32.1,30.21,ESE,117,4.0,5.0,55,0.00,,---,0.00,98.00,VWS V14.01,2013-05-12 12:47:00,
2013-05-12 07:52:00,47.6,32.2,30.22,ESE,117,4.0,5.0,55,0.00,,---,0.00,95.00,VWS V14.01,2013-05-12 12:52:00,
2013-05-12 07:57:00,47.7,31.4,30.22,ESE,117,1.0,5.0,53,0.00,,---,0.00,105.00,VWS V14.01,2013-05-12 12:57:00,
2013-05-12 08:00:00,47.9,31.6,30.21,ESE,117,0.0,5.0,53,0.00,,---,0.00,125.00,VWS V14.01,2013-05-12 13:00:00,
2013-05-12 08:02:00,48.0,31.2,30.22,ESE,117,2.0,4.0,52,0.00,,---,0.00,148.00,VWS V14.01,2013-05-12 13:02:00,
2013-05-12 08:07:00,48.5,30.7,30.21,ESE,119,5.0,5.0,50,0.00,,---,0.00,193.00,VWS V14.01,2013-05-12 13:07:00,
2013-05-12 08:12:00,48.9,31.1,30.21,ESE,117,4.0,7.0,50,0.00,,---,0.00,388.00,VWS V14.01,2013-05-12 13:12:00,
2013-05-12 08:17:00,49.5,30.6,30.21,SE,124,7.0,7.0,48,0.00,,---,0.00,329.00,VWS V14.01,2013-05-12 13:17:00,
2013-05-12 08:22:00,50.1,31.2,30.21,SE,143,5.0,11.0,48,0.00,,---,0.00,308.00,VWS V14.01,2013-05-12 13:22:00,
2013-05-12 08:27:00,50.5,31.6,30.22,South,173,4.0,11.0,48,0.00,,---,0.00,202.00,VWS V14.01,2013-05-12 13:27:00,
2013-05-12 08:30:00,50.8,31.3,30.22,SSE,159,4.0,11.0,47,0.00,,---,0.00,199.00,VWS V14.01,2013-05-12 13:30:00,
2013-05-12 08:32:00,51.1,30.5,30.22,SSE,165,6.0,7.0,45,0.00,,---,0.00,171.00,VWS V14.01,2013-05-12 13:32:00,
2013-05-12 08:37:00,51.1,29.4,30.21,SSE,157,9.0,12.0,43,0.00,,---,0.00,425.00,VWS V14.01,2013-05-12 13:37:00,
2013-05-12 08:42:00,51.1,30.0,30.22,SSE,159,8.0,12.0,44,0.00,,---,0.00,167.00,VWS V14.01,2013-05-12 13:42:00,
2013-05-12 08:47:00,51.6,32.0,30.21,South,182,4.0,12.0,47,0.00,,---,0.00,424.00,VWS V14.01,2013-05-12 13:47:00,
2013-05-12 08:52:00,51.6,31.5,30.19,SE,142,13.0,15.0,46,0.00,,---,0.00,473.00,VWS V14.01,2013-05-12 13:52:00,
2013-05-12 08:57:00,51.7,33.7,30.18,SE,125,14.0,15.0,50,0.00,,---,0.00,524.00,VWS V14.01,2013-05-12 13:57:00,
2013-05-12 09:00:00,51.6,33.6,30.18,SSE,158,13.0,16.0,50,0.00,,---,0.00,461.00,VWS V14.01,2013-05-12 14:00:00,
2013-05-12 09:02:00,51.7,34.7,30.18,ESE,122,9.0,12.0,52,0.00,,---,0.00,466.00,VWS V14.01,2013-05-12 14:02:00,
2013-05-12 09:07:00,51.7,32.7,30.18,ESE,123,16.0,16.0,48,0.00,,---,0.00,179.00,VWS V14.01,2013-05-12 14:07:00,
2013-05-12 09:12:00,52.2,32.1,30.19,SE,142,8.0,16.0,46,0.00,,---,0.00,517.00,VWS V14.01,2013-05-12 14:12:00,
2013-05-12 09:17:00,53.3,31.4,30.19,SE,130,7.0,16.0,43,0.00,,---,0.00,520.00,VWS V14.01,2013-05-12 14:17:00,
2013-05-12 09:22:00,53.6,28.6,30.20,SE,127,9.0,16.0,38,0.00,,---,0.00,223.00,VWS V14.01,2013-05-12 14:22:00,
2013-05-12 09:27:00,53.9,28.2,30.20,SE,144,12.0,16.0,37,0.00,,---,0.00,257.00,VWS V14.01,2013-05-12 14:27:00,
2013-05-12 09:30:00,53.9,28.2,30.20,SSE,157,7.0,16.0,37,0.00,,---,0.00,253.00,VWS V14.01,2013-05-12 14:30:00,
2013-05-12 09:32:00,54.1,29.1,30.20,SE,144,6.0,12.0,38,0.00,,---,0.00,306.00,VWS V14.01,2013-05-12 14:32:00,
2013-05-12 09:37:00,54.4,28.7,30.20,SSE,155,11.0,14.0,37,0.00,,---,0.00,264.00,VWS V14.01,2013-05-12 14:37:00,
2013-05-12 09:42:00,55.0,29.2,30.20,SE,125,8.0,14.0,37,0.00,,---,0.00,759.00,VWS V14.01,2013-05-12 14:42:00,
2013-05-12 09:47:00,55.3,28.1,30.21,SE,134,12.0,14.0,35,0.00,,---,0.00,229.00,VWS V14.01,2013-05-12 14:47:00,
2013-05-12 09:52:00,55.0,27.9,30.21,SE,125,12.0,15.0,35,0.00,,---,0.00,144.00,VWS V14.01,2013-05-12 14:52:00,
2013-05-12 09:57:00,55.0,29.2,30.22,East,98,5.0,15.0,37,0.00,,---,0.00,118.00,VWS V14.01,2013-05-12 14:57:00,
2013-05-12 10:00:00,55.0,29.2,30.22,East,97,5.0,15.0,37,0.00,,---,0.00,121.00,VWS V14.01,2013-05-12 15:00:00,
2013-05-12 10:02:00,55.0,29.2,30.22,SE,128,5.0,9.0,37,0.00,,---,0.00,148.00,VWS V14.01,2013-05-12 15:02:00,
2013-05-12 10:07:00,55.1,28.0,30.22,ESE,123,7.0,12.0,35,0.00,,---,0.00,225.00,VWS V14.01,2013-05-12 15:07:00,
2013-05-12 10:12:00,55.1,29.3,30.21,ESE,115,9.0,12.0,37,0.00,,---,0.00,229.00,VWS V14.01,2013-05-12 15:12:00,
2013-05-12 10:17:00,55.1,30.0,30.20,SE,140,8.0,14.0,38,0.00,,---,0.00,225.00,VWS V14.01,2013-05-12 15:17:00,
2013-05-12 10:22:00,55.3,28.1,30.20,ESE,122,13.0,16.0,35,0.00,,---,0.00,179.00,VWS V14.01,2013-05-12 15:22:00,
2013-05-12 10:27:00,55.1,28.6,30.20,SE,146,6.0,16.0,36,0.00,,---,0.00,185.00,VWS V14.01,2013-05-12 15:27:00,
2013-05-12 10:30:00,55.1,29.3,30.20,SE,132,8.0,16.0,37,0.00,,---,0.00,165.00,VWS V14.01,2013-05-12 15:30:00,
2013-05-12 10:32:00,55.1,29.3,30.21,SSE,162,6.0,8.0,37,0.00,,---,0.00,113.00,VWS V14.01,2013-05-12 15:32:00,
2013-05-12 10:37:00,55.1,28.6,30.21,SSE,148,9.0,9.0,36,0.00,,---,0.00,70.00,VWS V14.01,2013-05-12 15:37:00,
2013-05-12 10:42:00,54.8,31.6,30.19,SE,138,10.0,15.0,41,0.00,,---,0.00,70.00,VWS V14.01,2013-05-12 15:42:00,
2013-05-12 10:47:00,54.2,33.3,30.20,ESE,105,4.0,15.0,45,0.00,,---,0.00,113.00,VWS V14.01,2013-05-12 15:47:00,
2013-05-12 10:52:00,53.8,33.0,30.20,SE,146,6.0,15.0,45,0.00,,---,0.00,120.00,VWS V14.01,2013-05-12 15:52:00,
2013-05-12 10:57:00,53.5,34.8,30.19,SSE,163,9.0,15.0,49,0.00,,---,0.00,77.00,VWS V14.01,2013-05-12 15:57:00,
2013-05-12 11:00:00,53.5,35.8,30.18,SSE,160,9.0,15.0,51,0.00,,---,0.00,65.00,VWS V14.01,2013-05-12 16:00:00,
2013-05-12 11:03:00,53.6,34.9,30.17,SSE,168,11.0,15.0,49,0.00,,---,0.00,53.00,VWS V14.01,2013-05-12 16:03:00,
2013-05-12 11:08:00,53.8,34.1,30.16,SSE,167,16.0,16.0,47,0.00,,---,0.00,51.00,VWS V14.01,2013-05-12 16:08:00,
2013-05-12 11:13:00,54.1,33.8,30.16,South,169,13.0,20.0,46,0.00,,---,0.00,63.00,VWS V14.01,2013-05-12 16:13:00,
2013-05-12 11:18:00,54.2,32.8,30.14,SSE,156,12.0,20.0,44,0.00,,---,0.00,134.00,VWS V14.01,2013-05-12 16:18:00,
2013-05-12 11:23:00,54.1,32.7,30.12,SE,142,14.0,27.0,44,0.00,,---,0.00,311.00,VWS V14.01,2013-05-12 16:23:00,
2013-05-12 11:28:00,54.2,35.0,30.13,ESE,121,20.0,27.0,48,0.00,,---,0.00,311.00,VWS V14.01,2013-05-12 16:28:00,
2013-05-12 11:30:00,54.4,35.1,30.13,South,169,9.0,27.0,48,0.00,,---,0.00,311.00,VWS V14.01,2013-05-12 16:30:00,
2013-05-12 11:33:00,54.5,35.2,30.14,SSE,159,11.0,16.0,48,0.00,,---,0.00,181.00,VWS V14.01,2013-05-12 16:33:00,
2013-05-12 11:38:00,54.5,32.5,30.14,South,169,8.0,20.0,43,0.00,,---,0.00,135.00,VWS V14.01,2013-05-12 16:38:00,
2013-05-12 11:43:00,54.5,33.0,30.15,SSE,163,6.0,20.0,44,0.00,,---,0.00,72.00,VWS V14.01,2013-05-12 16:43:00,
2013-05-12 11:48:00,54.7,33.8,30.19,NNE,31,5.0,20.0,45,0.00,,---,0.00,32.00,VWS V14.01,2013-05-12 16:48:00,
2013-05-12 11:53:00,54.5,33.6,30.18,ESE,105,5.0,20.0,45,0.00,,---,0.00,47.00,VWS V14.01,2013-05-12 16:53:00,
2013-05-12 11:58:00,54.5,33.6,30.17,East,82,7.0,20.0,45,0.01,,---,0.01,74.00,VWS V14.01,2013-05-12 16:58:00,
2013-05-12 12:00:00,54.4,35.1,30.16,SE,133,9.0,20.0,48,0.01,,---,0.01,116.00,VWS V14.01,2013-05-12 17:00:00,
2013-05-12 12:03:00,53.8,37.1,30.14,SE,136,9.0,15.0,53,0.02,,---,0.02,172.00,VWS V14.01,2013-05-12 17:03:00,
2013-05-12 12:08:00,53.3,36.6,30.13,SE,145,14.0,21.0,53,0.02,,---,0.02,142.00,VWS V14.01,2013-05-12 17:08:00,
2013-05-12 12:13:00,53.1,36.9,30.11,SSE,147,9.0,21.0,54,0.02,,---,0.02,113.00,VWS V14.01,2013-05-12 17:13:00,
2013-05-12 12:18:00,52.6,37.8,30.12,ESE,117,8.0,21.0,57,0.02,,---,0.02,149.00,VWS V14.01,2013-05-12 17:18:00,
2013-05-12 12:23:00,52.0,39.4,30.13,NE,40,10.0,21.0,62,0.04,,---,0.04,221.00,VWS V14.01,2013-05-12 17:23:00,
2013-05-12 12:28:00,51.7,38.3,30.14,East,88,6.0,21.0,60,0.05,,---,0.05,323.00,VWS V14.01,2013-05-12 17:28:00,
2013-05-12 12:30:00,51.9,38.0,30.14,East,83,8.0,21.0,59,0.05,,---,0.05,323.00,VWS V14.01,2013-05-12 17:30:00,
2013-05-12 12:33:00,52.2,38.3,30.14,SE,126,8.0,16.0,59,0.05,,---,0.05,380.00,VWS V14.01,2013-05-12 17:33:00,
2013-05-12 12:38:00,52.8,40.6,30.14,ESE,121,8.0,16.0,63,0.05,,---,0.05,376.00,VWS V14.01,2013-05-12 17:38:00,
2013-05-12 12:43:00,53.5,39.5,30.14,ESE,102,9.0,19.0,59,0.05,,---,0.05,940.00,VWS V14.01,2013-05-12 17:43:00,
2013-05-12 12:48:00,53.8,40.3,30.13,ESE,113,12.0,19.0,60,0.05,,---,0.05,265.00,VWS V14.01,2013-05-12 17:48:00,
2013-05-12 12:53:00,53.9,40.8,30.13,SE,128,11.0,19.0,61,0.05,,---,0.05,211.00,VWS V14.01,2013-05-12 17:53:00,
2013-05-12 12:58:00,54.4,40.4,30.13,SE,136,11.0,19.0,59,0.05,,---,0.05,919.00,VWS V14.01,2013-05-12 17:58:00,
2013-05-12 13:00:00,54.7,40.7,30.13,East,95,11.0,19.0,59,0.05,,---,0.05,947.00,VWS V14.01,2013-05-12 18:00:00,
2013-05-12 13:03:00,54.8,39.9,30.13,ESE,111,12.0,19.0,57,0.04,,---,0.05,935.00,VWS V14.01,2013-05-12 18:03:00,
2013-05-12 13:08:00,55.6,39.2,30.13,SSE,148,13.0,19.0,54,0.04,,---,0.05,921.00,VWS V14.01,2013-05-12 18:08:00,
2013-05-12 13:13:00,56.2,39.8,30.13,SE,130,9.0,19.0,54,0.04,,---,0.05,944.00,VWS V14.01,2013-05-12 18:13:00,
2013-05-12 13:18:00,56.5,40.5,30.12,ESE,123,9.0,19.0,55,0.04,,---,0.05,956.00,VWS V14.01,2013-05-12 18:18:00,
2013-05-12 13:23:00,56.7,41.2,30.12,ESE,112,12.0,20.0,56,0.04,,---,0.05,933.00,VWS V14.01,2013-05-12 18:23:00,
2013-05-12 13:28:00,57.0,41.0,30.12,SE,144,13.0,20.0,55,0.04,,---,0.05,923.00,VWS V14.01,2013-05-12 18:28:00,
2013-05-12 13:30:00,57.2,42.1,30.12,SE,126,12.0,20.0,57,0.04,,---,0.05,919.00,VWS V14.01,2013-05-12 18:30:00,
2013-05-12 13:33:00,57.3,40.3,30.11,ESE,115,19.0,22.0,53,0.00,,---,0.05,912.00,VWS V14.01,2013-05-12 18:33:00,
2013-05-12 13:38:00,58.1,41.1,30.11,ESE,123,14.0,22.0,53,0.00,,---,0.05,909.00,VWS V14.01,2013-05-12 18:38:00,
2013-05-12 13:43:00,59.0,40.9,30.11,ESE,120,8.0,22.0,51,0.00,,---,0.05,902.00,VWS V14.01,2013-05-12 18:43:00,
2013-05-12 13:48:00,59.6,39.9,30.10,ESE,121,18.0,22.0,48,0.00,,---,0.05,784.00,VWS V14.01,2013-05-12 18:48:00,
2013-05-12 13:53:00,59.9,39.6,30.10,SE,135,18.0,22.0,47,0.00,,---,0.05,79.00,VWS V14.01,2013-05-12 18:53:00,
2013-05-12 13:58:00,60.1,40.9,30.10,ESE,114,11.0,22.0,49,0.00,,---,0.05,79.00,VWS V14.01,2013-05-12 18:58:00,
2013-05-12 14:00:00,60.2,40.5,30.10,ESE,114,5.0,22.0,48,0.00,,---,0.05,79.00,VWS V14.01,2013-05-12 19:00:00,
2013-05-12 14:03:00,60.5,40.2,30.10,SE,133,17.0,19.0,47,0.00,,---,0.05,86.00,VWS V14.01,2013-05-12 19:03:00,
2013-05-12 14:08:00,61.0,41.2,30.10,SE,125,11.0,19.0,48,0.00,,---,0.05,149.00,VWS V14.01,2013-05-12 19:08:00,
2013-05-12 14:13:00,62.0,36.1,30.10,SSE,158,11.0,21.0,38,0.00,,---,0.05,97.00,VWS V14.01,2013-05-12 19:13:00,
2013-05-12 14:18:00,62.4,35.8,30.10,SSE,166,14.0,21.0,37,0.00,,---,0.05,77.00,VWS V14.01,2013-05-12 19:18:00,
2013-05-12 14:23:00,62.9,36.2,30.10,SE,140,8.0,24.0,37,0.00,,---,0.05,76.00,VWS V14.01,2013-05-12 19:23:00,
2013-05-12 14:28:00,63.9,36.5,30.10,SSW,192,16.0,24.0,36,0.00,,---,0.05,74.00,VWS V14.01,2013-05-12 19:28:00,
2013-05-12 14:30:00,63.9,37.1,30.10,SSE,147,8.0,24.0,37,0.00,,---,0.05,76.00,VWS V14.01,2013-05-12 19:30:00,
2013-05-12 14:33:00,63.9,37.8,30.10,SE,145,9.0,15.0,38,0.00,,---,0.05,83.00,VWS V14.01,2013-05-12 19:33:00,
2013-05-12 14:38:00,64.0,35.1,30.10,SSE,167,12.0,21.0,34,0.00,,---,0.05,79.00,VWS V14.01,2013-05-12 19:38:00,
2013-05-12 14:43:00,63.7,37.6,30.09,SSW,199,11.0,26.0,38,0.00,,---,0.05,72.00,VWS V14.01,2013-05-12 19:43:00,
2013-05-12 14:48:00,64.0,39.8,30.10,South,182,15.0,26.0,41,0.00,,---,0.05,72.00,VWS V14.01,2013-05-12 19:48:00,
2013-05-12 14:53:00,63.7,39.6,30.10,SSE,158,13.0,26.0,41,0.00,,---,0.05,72.00,VWS V14.01,2013-05-12 19:53:00,
2013-05-12 14:58:00,63.9,37.8,30.09,SSE,153,19.0,26.0,38,0.00,,---,0.05,72.00,VWS V14.01,2013-05-12 19:58:00,
2013-05-12 15:00:00,63.9,38.5,30.09,SSE,155,14.0,26.0,39,0.00,,---,0.05,72.00,VWS V14.01,2013-05-12 20:00:00,
2013-05-12 15:03:00,63.9,38.5,30.09,SE,135,15.0,21.0,39,0.00,,---,0.05,74.00,VWS V14.01,2013-05-12 20:03:00,
2013-05-12 15:08:00,63.9,37.1,30.09,SE,133,12.0,21.0,37,0.00,,---,0.05,98.00,VWS V14.01,2013-05-12 20:08:00,
2013-05-12 15:13:00,64.3,38.8,30.09,SSE,153,8.0,21.0,39,0.00,,---,0.05,473.00,VWS V14.01,2013-05-12 20:13:00,
2013-05-12 15:18:00,65.0,38.1,30.09,SSE,162,4.0,23.0,37,0.00,,---,0.05,788.00,VWS V14.01,2013-05-12 20:18:00,
2013-05-12 15:23:00,65.2,39.0,30.08,SSE,163,13.0,23.0,38,0.00,,---,0.05,826.00,VWS V14.01,2013-05-12 20:23:00,
2013-05-12 15:28:00,65.5,38.6,30.08,South,171,13.0,23.0,37,0.00,,---,0.05,819.00,VWS V14.01,2013-05-12 20:28:00,
2013-05-12 15:30:00,65.3,38.4,30.08,SE,146,9.0,23.0,37,0.00,,---,0.05,816.00,VWS V14.01,2013-05-12 20:30:00,
2013-05-12 15:33:00,65.6,39.3,30.08,SSE,168,12.0,12.0,38,0.00,,---,0.05,812.00,VWS V14.01,2013-05-12 20:33:00,
2013-05-12 15:38:00,65.0,38.1,30.08,South,170,12.0,19.0,37,0.00,,---,0.05,802.00,VWS V14.01,2013-05-12 20:38:00,
2013-05-12 15:43:00,65.2,39.0,30.08,South,170,9.0,19.0,38,0.00,,---,0.05,795.00,VWS V14.01,2013-05-12 20:43:00,
2013-05-12 15:48:00,65.2,39.0,30.07,SE,138,17.0,20.0,38,0.00,,---,0.05,786.00,VWS V14.01,2013-05-12 20:48:00,
2013-05-12 15:53:00,65.5,39.2,30.07,SE,140,9.0,20.0,38,0.00,,---,0.05,779.00,VWS V14.01,2013-05-12 20:53:00,
2013-05-12 15:58:00,65.8,40.2,30.07,SE,139,12.0,20.0,39,0.00,,---,0.05,768.00,VWS V14.01,2013-05-12 20:58:00,
2013-05-12 16:00:00,65.8,39.5,30.06,SSE,167,12.0,20.0,38,0.00,,---,0.05,765.00,VWS V14.01,2013-05-12 21:00:00,
2013-05-12 16:03:00,66.1,40.5,30.06,SE,127,19.0,19.0,39,0.00,,---,0.05,759.00,VWS V14.01,2013-05-12 21:03:00,
2013-05-12 16:08:00,66.3,40.6,30.06,SE,137,10.0,19.0,39,0.00,,---,0.05,747.00,VWS V14.01,2013-05-12 21:08:00,
2013-05-12 16:13:00,66.1,39.1,30.06,SE,141,14.0,19.0,37,0.00,,---,0.05,737.00,VWS V14.01,2013-05-12 21:13:00,
2013-05-12 16:18:00,66.1,39.1,30.06,SSE,158,9.0,20.0,37,0.00,,---,0.05,724.00,VWS V14.01,2013-05-12 21:18:00,
2013-05-12 16:23:00,66.4,40.0,30.06,SE,134,11.0,20.0,38,0.00,,---,0.05,719.00,VWS V14.01,2013-05-12 21:23:00,
2013-05-12 16:28:00,66.4,40.0,30.05,SSE,163,11.0,23.0,38,0.00,,---,0.05,701.00,VWS V14.01,2013-05-12 21:28:00,
2013-05-12 16:30:00,66.4,40.0,30.05,South,188,8.0,23.0,38,0.00,,---,0.05,700.00,VWS V14.01,2013-05-12 21:30:00,
2013-05-12 16:33:00,66.3,40.0,30.05,SE,135,19.0,25.0,38,0.00,,---,0.05,694.00,VWS V14.01,2013-05-12 21:33:00,
2013-05-12 16:38:00,66.4,40.7,30.05,SSE,165,13.0,25.0,39,0.00,,---,0.05,675.00,VWS V14.01,2013-05-12 21:38:00,
2013-05-12 16:43:00,66.8,39.7,30.05,SSE,151,14.0,25.0,37,0.00,,---,0.05,666.00,VWS V14.01,2013-05-12 21:43:00,
2013-05-12 16:48:00,66.8,41.1,30.05,SSE,159,9.0,25.0,39,0.00,,---,0.05,650.00,VWS V14.01,2013-05-12 21:48:00,
2013-05-12 16:53:00,66.8,40.4,30.04,SSE,150,13.0,25.0,38,0.00,,---,0.05,638.00,VWS V14.01,2013-05-12 21:53:00,
2013-05-12 16:58:00,66.8,41.1,30.04,South,188,12.0,25.0,39,0.00,,---,0.05,628.00,VWS V14.01,2013-05-12 21:58:00,
2013-05-12 17:00:00,66.8,41.1,30.04,South,172,5.0,25.0,39,0.00,,---,0.05,622.00,VWS V14.01,2013-05-12 22:00:00,
2013-05-12 17:03:00,67.1,41.3,30.04,SSE,159,8.0,15.0,39,0.00,,---,0.05,612.00,VWS V14.01,2013-05-12 22:03:00,
2013-05-12 17:08:00,66.9,41.8,30.04,East,94,16.0,20.0,40,0.00,,---,0.05,599.00,VWS V14.01,2013-05-12 22:08:00,
2013-05-12 17:13:00,66.4,41.4,30.04,SE,140,15.0,24.0,40,0.00,,---,0.05,585.00,VWS V14.01,2013-05-12 22:13:00,
2013-05-12 17:18:00,66.8,42.4,30.04,ESE,114,12.0,24.0,41,0.00,,---,0.05,575.00,VWS V14.01,2013-05-12 22:18:00,
2013-05-12 17:23:00,67.1,42.0,30.04,SSE,153,12.0,24.0,40,0.00,,---,0.05,555.00,VWS V14.01,2013-05-12 22:23:00,
2013-05-12 17:28:00,67.1,42.6,30.03,SE,134,12.0,24.0,41,0.00,,---,0.05,541.00,VWS V14.01,2013-05-12 22:28:00,
2013-05-12 17:30:00,67.1,42.6,30.03,East,97,7.0,24.0,41,0.00,,---,0.05,531.00,VWS V14.01,2013-05-12 22:30:00,
2013-05-12 17:33:00,67.9,42.1,30.03,SW,215,7.0,18.0,39,0.00,,---,0.05,526.00,VWS V14.01,2013-05-12 22:33:00,
2013-05-12 17:38:00,68.4,40.4,30.03,SE,144,8.0,18.0,36,0.00,,---,0.05,510.00,VWS V14.01,2013-05-12 22:38:00,
2013-05-12 17:43:00,68.4,40.4,30.03,SE,141,17.0,18.0,36,0.00,,---,0.05,497.00,VWS V14.01,2013-05-12 22:43:00,
2013-05-12 17:48:00,68.6,39.9,30.02,SSW,193,7.0,19.0,35,0.00,,---,0.05,478.00,VWS V14.01,2013-05-12 22:48:00,
2013-05-12 17:53:00,68.4,41.1,30.02,South,179,9.0,19.0,37,0.00,,---,0.05,461.00,VWS V14.01,2013-05-12 22:53:00,
2013-05-12 17:58:00,68.1,41.6,30.02,SSE,154,17.0,21.0,38,0.00,,---,0.05,411.00,VWS V14.01,2013-05-12 22:58:00,
2013-05-12 18:00:00,67.9,40.7,30.02,SE,136,13.0,21.0,37,0.00,,---,0.05,443.00,VWS V14.01,2013-05-12 23:00:00,
2013-05-12 18:03:00,68.1,42.9,30.02,SSE,158,10.0,18.0,40,0.00,,---,0.05,434.00,VWS V14.01,2013-05-12 23:03:00,
2013-05-12 18:08:00,68.1,42.2,30.02,SSW,198,6.0,19.0,39,0.00,,---,0.05,418.00,VWS V14.01,2013-05-12 23:08:00,
2013-05-12 18:13:00,68.4,41.8,30.01,South,175,15.0,19.0,38,0.00,,---,0.05,397.00,VWS V14.01,2013-05-12 23:13:00,
2013-05-12 18:18:00,68.1,41.6,30.01,SSE,153,9.0,19.0,38,0.00,,---,0.05,387.00,VWS V14.01,2013-05-12 23:18:00,
2013-05-12 18:23:00,67.9,42.1,30.01,SE,135,9.0,20.0,39,0.00,,---,0.05,376.00,VWS V14.01,2013-05-12 23:23:00,
2013-05-12 18:28:00,67.9,42.1,30.01,SSE,152,10.0,20.0,39,0.00,,---,0.05,359.00,VWS V14.01,2013-05-12 23:28:00,
2013-05-12 18:30:00,67.9,42.7,30.01,SSE,149,14.0,20.0,40,0.00,,---,0.05,357.00,VWS V14.01,2013-05-12 23:30:00,
2013-05-12 18:33:00,68.1,42.2,30.01,SSE,155,12.0,16.0,39,0.00,,---,0.05,345.00,VWS V14.01,2013-05-12 23:33:00,
2013-05-12 18:38:00,68.3,43.1,30.01,SSE,165,15.0,19.0,40,0.00,,---,0.05,329.00,VWS V14.01,2013-05-12 23:38:00,
2013-05-12 18:43:00,68.1,42.2,30.01,SSE,164,12.0,19.0,39,0.00,,---,0.05,311.00,VWS V14.01,2013-05-12 23:43:00,
2013-05-12 18:48:00,68.1,42.9,30.01,SSE,150,12.0,19.0,40,0.00,,---,0.05,301.00,VWS V14.01,2013-05-12 23:48:00,
2013-05-12 18:53:00,68.1,42.9,30.01,SE,146,17.0,19.0,40,0.00,,---,0.05,281.00,VWS V14.01,2013-05-12 23:53:00,
2013-05-12 18:58:00,67.8,42.6,30.01,SSE,151,11.0,19.0,40,0.00,,---,0.05,267.00,VWS V14.01,2013-05-12 23:58:00,
2013-05-12 19:00:00,67.8,42.0,30.01,SSE,161,7.0,19.0,39,0.00,,---,0.05,262.00,VWS V14.01,2013-05-13 00:00:00,
2013-05-12 19:03:00,67.9,42.1,30.01,SE,142,14.0,20.0,39,0.00,,---,0.05,251.00,VWS V14.01,2013-05-13 00:03:00,
2013-05-12 19:08:00,67.8,42.6,30.01,SSE,157,14.0,20.0,40,0.00,,---,0.05,237.00,VWS V14.01,2013-05-13 00:08:00,
2013-05-12 19:13:00,67.8,43.3,30.00,SE,140,14.0,20.0,41,0.00,,---,0.05,218.00,VWS V14.01,2013-05-13 00:13:00,
2013-05-12 19:18:00,67.8,43.3,30.00,SSE,167,12.0,20.0,41,0.00,,---,0.05,202.00,VWS V14.01,2013-05-13 00:18:00,
2013-05-12 19:23:00,67.8,43.3,30.00,SE,140,12.0,20.0,41,0.00,,---,0.05,190.00,VWS V14.01,2013-05-13 00:23:00,
2013-05-12 19:28:00,67.8,43.3,30.00,SE,144,7.0,20.0,41,0.00,,---,0.05,172.00,VWS V14.01,2013-05-13 00:28:00,
2013-05-12 19:30:00,67.8,43.3,30.00,SE,140,11.0,20.0,41,0.00,,---,0.05,171.00,VWS V14.01,2013-05-13 00:30:00,
2013-05-12 19:33:00,67.6,43.1,30.00,South,169,7.0,19.0,41,0.00,,---,0.05,137.00,VWS V14.01,2013-05-13 00:33:00,
2013-05-12 19:38:00,67.6,43.1,30.00,SE,144,10.0,19.0,41,0.00,,---,0.05,144.00,VWS V14.01,2013-05-13 00:38:00,
2013-05-12 19:43:00,67.4,43.5,30.00,SSE,157,9.0,19.0,42,0.00,,---,0.05,127.00,VWS V14.01,2013-05-13 00:43:00,
2013-05-12 19:48:00,67.3,44.1,30.00,SE,142,6.0,19.0,43,0.00,,---,0.05,114.00,VWS V14.01,2013-05-13 00:48:00,
2013-05-12 19:53:00,66.9,44.3,30.00,SE,129,7.0,19.0,44,0.00,,---,0.05,97.00,VWS V14.01,2013-05-13 00:53:00,
2013-05-12 19:58:00,66.8,44.8,30.00,SE,134,9.0,19.0,45,0.00,,---,0.05,81.00,VWS V14.01,2013-05-13 00:58:00,
2013-05-12 20:00:00,66.6,44.6,30.00,ESE,117,7.0,19.0,45,0.00,,---,0.05,76.00,VWS V14.01,2013-05-13 01:00:00,
2013-05-12 20:03:00,66.4,44.4,30.00,SE,126,11.0,12.0,45,0.00,,---,0.05,63.00,VWS V14.01,2013-05-13 01:03:00,
2013-05-12 20:08:00,66.0,45.2,30.00,SE,131,7.0,13.0,47,0.00,,---,0.05,47.00,VWS V14.01,2013-05-13 01:08:00,
2013-05-12 20:13:00,65.6,44.8,30.00,ESE,122,7.0,13.0,47,0.00,,---,0.05,37.00,VWS V14.01,2013-05-13 01:13:00,
2013-05-12 20:18:00,65.2,44.5,30.00,SE,134,9.0,13.0,47,0.00,,---,0.05,26.00,VWS V14.01,2013-05-13 01:18:00,
2013-05-12 20:23:00,64.8,44.7,30.01,SE,138,7.0,13.0,48,0.00,,---,0.05,18.00,VWS V14.01,2013-05-13 01:23:00,
2013-05-12 20:28:00,64.5,44.4,30.00,SE,134,11.0,13.0,48,0.00,,---,0.05,9.00,VWS V14.01,2013-05-13 01:28:00,
2013-05-12 20:30:00,64.5,44.4,30.01,SE,140,9.0,13.0,48,0.00,,---,0.05,7.00,VWS V14.01,2013-05-13 01:30:00,
2013-05-12 20:33:00,64.2,44.1,30.01,SE,138,7.0,13.0,48,0.00,,---,0.05,0.00,VWS V14.01,2013-05-13 01:33:00,
2013-05-12 20:38:00,63.9,44.4,30.01,SE,130,7.0,13.0,49,0.00,,---,0.05,0.00,VWS V14.01,2013-05-13 01:38:00,
2013-05-12 20:43:00,63.5,44.0,30.01,ESE,123,8.0,13.0,49,0.00,,---,0.05,0.00,VWS V14.01,2013-05-13 01:43:00,
2013-05-12 20:48:00,63.2,44.3,30.01,SE,132,6.0,13.0,50,0.00,,---,0.05,0.00,VWS V14.01,2013-05-13 01:48:00,
2013-05-12 20:53:00,62.9,44.0,30.01,SE,124,11.0,13.0,50,0.00,,---,0.05,0.00,VWS V14.01,2013-05-13 01:53:00,
2013-05-12 20:58:00,62.7,43.8,30.01,SE,128,12.0,13.0,50,0.00,,---,0.05,0.00,VWS V14.01,2013-05-13 01:58:00,
2013-05-12 21:00:00,62.7,43.8,30.01,SE,126,11.0,13.0,50,0.00,,---,0.05,0.00,VWS V14.01,2013-05-13 02:00:00,
2013-05-12 21:03:00,62.6,43.7,30.01,SE,126,8.0,11.0,50,0.00,,---,0.05,0.00,VWS V14.01,2013-05-13 02:03:00,
2013-05-12 21:09:00,62.4,44.0,30.01,ESE,121,5.0,11.0,51,0.00,,---,0.05,0.00,VWS V14.01,2013-05-13 02:09:00,
2013-05-12 21:14:00,62.3,44.0,30.01,SE,128,5.0,11.0,51,0.00,,---,0.05,0.00,VWS V14.01,2013-05-13 02:14:00,
2013-05-12 21:19:00,62.1,44.3,30.02,ESE,109,5.0,11.0,52,0.00,,---,0.05,0.00,VWS V14.01,2013-05-13 02:19:00,
2013-05-12 21:23:00,61.6,44.3,30.02,ESE,106,6.0,11.0,53,0.00,,---,0.05,0.00,VWS V14.01,2013-05-13 02:23:00,
2013-05-12 21:28:00,61.3,44.5,30.02,ESE,112,7.0,11.0,54,0.00,,---,0.05,0.00,VWS V14.01,2013-05-13 02:28:00,
2013-05-12 21:30:00,61.3,44.0,30.02,ESE,111,7.0,11.0,53,0.00,,---,0.05,0.00,VWS V14.01,2013-05-13 02:30:00,
2013-05-12 21:33:00,61.0,44.2,30.02,East,86,4.0,7.0,54,0.00,,---,0.05,0.00,VWS V14.01,2013-05-13 02:33:00,
2013-05-12 21:39:00,60.7,44.5,30.03,East,93,5.0,7.0,55,0.00,,---,0.05,0.00,VWS V14.01,2013-05-13 02:39:00,
2013-05-12 21:44:00,60.5,44.3,30.03,ESE,119,6.0,9.0,55,0.00,,---,0.05,0.00,VWS V14.01,2013-05-13 02:44:00,
2013-05-12 21:49:00,60.2,44.0,30.03,ESE,110,8.0,9.0,55,0.00,,---,0.05,0.00,VWS V14.01,2013-05-13 02:49:00,
2013-05-12 21:54:00,59.9,44.2,30.03,ESE,107,5.0,9.0,56,0.00,,---,0.05,0.00,VWS V14.01,2013-05-13 02:54:00,
2013-05-12 21:59:00,59.6,44.4,30.03,ESE,109,8.0,9.0,57,0.00,,---,0.05,0.00,VWS V14.01,2013-05-13 02:59:00,
2013-05-12 22:00:00,59.6,44.4,30.03,East,98,6.0,9.0,57,0.00,,---,0.05,0.00,VWS V14.01,2013-05-13 03:00:00,
2013-05-12 22:04:00,59.3,44.5,30.03,ESE,109,8.0,9.0,58,0.00,,---,0.05,0.00,VWS V14.01,2013-05-13 03:04:00,
2013-05-12 22:09:00,58.9,44.2,30.03,East,84,7.0,12.0,58,0.00,,---,0.05,0.00,VWS V14.01,2013-05-13 03:09:00,
2013-05-12 22:14:00,58.6,44.3,30.03,ESE,114,9.0,13.0,59,0.00,,---,0.05,0.00,VWS V14.01,2013-05-13 03:14:00,
2013-05-12 22:19:00,58.3,44.0,30.03,SE,126,8.0,14.0,59,0.00,,---,0.05,0.00,VWS V14.01,2013-05-13 03:19:00,
2013-05-12 22:24:00,57.8,44.5,30.04,ENE,74,4.0,14.0,61,0.00,,---,0.05,0.00,VWS V14.01,2013-05-13 03:24:00,
2013-05-12 22:29:00,57.5,44.6,30.04,East,96,5.0,14.0,62,0.00,,---,0.05,0.00,VWS V14.01,2013-05-13 03:29:00,
2013-05-12 22:30:00,57.3,44.4,30.04,ESE,105,5.0,14.0,62,0.00,,---,0.05,0.00,VWS V14.01,2013-05-13 03:30:00,
2013-05-12 22:34:00,57.0,44.5,30.03,East,98,8.0,9.0,63,0.00,,---,0.05,0.00,VWS V14.01,2013-05-13 03:34:00,
2013-05-12 22:39:00,56.6,45.0,30.04,ESE,119,7.0,9.0,65,0.00,,---,0.05,0.00,VWS V14.01,2013-05-13 03:39:00,
2013-05-12 22:44:00,56.2,45.0,30.04,East,100,7.0,11.0,66,0.00,,---,0.05,0.00,VWS V14.01,2013-05-13 03:44:00,
2013-05-12 22:49:00,55.9,45.1,30.04,ESE,118,11.0,12.0,67,0.00,,---,0.05,0.00,VWS V14.01,2013-05-13 03:49:00,
2013-05-12 22:54:00,55.6,45.2,30.04,East,89,3.0,12.0,68,0.00,,---,0.05,0.00,VWS V14.01,2013-05-13 03:54:00,
2013-05-12 22:59:00,55.3,45.3,30.04,ESE,116,8.0,13.0,69,0.00,,---,0.05,0.00,VWS V14.01,2013-05-13 03:59:00,
2013-05-12 23:00:00,55.3,45.3,30.04,ESE,119,15.0,15.0,69,0.00,,---,0.05,0.00,VWS V14.01,2013-05-13 04:00:00,
2013-05-12 23:01:00,55.3,45.3,30.04,ESE,121,8.0,15.0,69,0.00,,---,0.05,0.00,VWS V14.01,2013-05-13 04:01:00,
2013-05-12 23:04:00,55.1,45.1,30.04,SE,139,4.0,15.0,69,0.00,,---,0.05,0.00,VWS V14.01,2013-05-13 04:04:00,
2013-05-12 23:09:00,55.0,45.0,30.04,SE,134,8.0,15.0,69,0.00,,---,0.05,0.00,VWS V14.01,2013-05-13 04:09:00,
2013-05-12 23:14:00,55.0,45.0,30.03,ESE,118,7.0,15.0,69,0.00,,---,0.05,0.00,VWS V14.01,2013-05-13 04:14:00,
2013-05-12 23:19:00,55.0,45.0,30.03,ESE,115,11.0,15.0,69,0.00,,---,0.05,0.00,VWS V14.01,2013-05-13 04:19:00,
2013-05-12 23:24:00,54.8,45.2,30.03,East,89,5.0,15.0,70,0.00,,---,0.05,0.00,VWS V14.01,2013-05-13 04:24:00,
2013-05-12 23:29:00,54.8,45.2,30.04,ESE,117,7.0,15.0,70,0.00,,---,0.05,0.00,VWS V14.01,2013-05-13 04:29:00,
2013-05-12 23:30:00,54.7,45.1,30.04,ESE,123,6.0,15.0,70,0.00,,---,0.05,0.00,VWS V14.01,2013-05-13 04:30:00,
2013-05-12 23:34:00,54.5,45.3,30.03,ESE,119,6.0,8.0,71,0.00,,---,0.05,0.00,VWS V14.01,2013-05-13 04:34:00,
2013-05-12 23:39:00,54.4,45.2,30.04,ESE,117,6.0,10.0,71,0.00,,---,0.05,0.00,VWS V14.01,2013-05-13 04:39:00,
2013-05-12 23:44:00,54.2,45.4,30.04,SE,135,8.0,12.0,72,0.00,,---,0.05,0.00,VWS V14.01,2013-05-13 04:44:00,
2013-05-12 23:49:00,54.1,45.3,30.03,ESE,115,9.0,12.0,72,0.00,,---,0.05,0.00,VWS V14.01,2013-05-13 04:49:00,
2013-05-12 23:54:00,53.9,45.1,30.04,SE,126,8.0,13.0,72,0.00,,---,0.05,0.00,VWS V14.01,2013-05-13 04:54:00,
2013-05-12 23:59:00,53.8,45.4,30.03,SE,146,8.0,15.0,73,0.00,,---,0.05,0.00,VWS V14.01,2013-05-13 04:59:00,